EXS73T EGGW-EGGP

Flight info

Callsign EXS73T
Flight time 0h 31m
Altitude 20000
Route OLNEY T420 ELVOS
Aircraft B738/M-SDE2E3FGHIRWXY/LB1

Departure

Time 2026-04-30 18:39
Airport London Luton Airport (EGGW)

Arrival

Time 2026-04-30 19:11
Airport Liverpool John Lennon Airport (EGGP)
Time Latitude Longitude Altitude Speed Heading
2026-04-30 18:05 51.87969 -0.37265 507 ft 0 kts 161°
2026-04-30 18:25 51.88010 -0.37297 507 ft 4 kts 123°
2026-04-30 18:25 51.88016 -0.37335 507 ft 4 kts 76°
2026-04-30 18:26 51.88014 -0.37351 507 ft 0 kts 72°
2026-04-30 18:31 51.88014 -0.37350 507 ft 1 kts 72°
2026-04-30 18:31 51.88035 -0.37244 507 ft 10 kts 72°
2026-04-30 18:32 51.87955 -0.37098 508 ft 10 kts 162°
2026-04-30 18:32 51.87883 -0.37060 509 ft 11 kts 161°
2026-04-30 18:32 51.87738 -0.36983 518 ft 11 kts 161°
2026-04-30 18:33 51.87667 -0.36948 523 ft 10 kts 172°
2026-04-30 18:33 51.87595 -0.37165 521 ft 12 kts 254°
2026-04-30 18:33 51.87576 -0.37307 521 ft 13 kts 269°
2026-04-30 18:34 51.87584 -0.37399 521 ft 8 kts 267°
2026-04-30 18:34 51.87502 -0.37543 521 ft 9 kts 252°
2026-04-30 18:34 51.87485 -0.37645 522 ft 10 kts 255°
2026-04-30 18:35 51.87466 -0.37761 522 ft 12 kts 255°
2026-04-30 18:35 51.87440 -0.37910 522 ft 14 kts 254°
2026-04-30 18:35 51.87428 -0.37978 523 ft 5 kts 253°
2026-04-30 18:36 51.87368 -0.38066 522 ft 3 kts 206°
2026-04-30 18:36 51.87363 -0.38069 522 ft 0 kts 207°
2026-04-30 18:37 51.87352 -0.38079 522 ft 4 kts 206°
2026-04-30 18:37 51.87294 -0.38111 521 ft 12 kts 182°
2026-04-30 18:37 51.87233 -0.38180 522 ft 12 kts 251°
2026-04-30 18:37 51.87197 -0.38273 520 ft 9 kts 233°
2026-04-30 18:38 51.87214 -0.38311 519 ft 2 kts 41°
2026-04-30 18:38 51.87216 -0.38284 520 ft 2 kts 77°
2026-04-30 18:38 51.87218 -0.38270 520 ft 0 kts 72°
2026-04-30 18:39 51.87243 -0.38129 523 ft 44 kts 75°
2026-04-30 18:39 51.87393 -0.37248 520 ft 116 kts 75°
2026-04-30 18:39 51.87659 -0.35723 651 ft 160 kts 77°
2026-04-30 18:39 51.87969 -0.34026 1585 ft 155 kts 78°
2026-04-30 18:40 51.88268 -0.32372 2491 ft 155 kts 82°
2026-04-30 18:40 51.88580 -0.30591 2815 ft 176 kts 81°
2026-04-30 18:40 51.88923 -0.28593 3203 ft 192 kts 80°
2026-04-30 18:40 51.89644 -0.26661 3577 ft 216 kts 46°
2026-04-30 18:41 51.91058 -0.25610 3930 ft 236 kts 12°
2026-04-30 18:41 51.92685 -0.25944 4524 ft 235 kts 336°
2026-04-30 18:41 51.93986 -0.27570 4835 ft 246 kts 300°
2026-04-30 18:41 51.94720 -0.30108 5166 ft 254 kts 296°
2026-04-30 18:42 51.95892 -0.32350 5559 ft 269 kts 314°
2026-04-30 18:42 51.98581 -0.36766 6772 ft 278 kts 312°
2026-04-30 18:42 51.99918 -0.39091 7308 ft 288 kts 311°
2026-04-30 18:45 52.15273 -0.67463 12183 ft 392 kts 309°
2026-04-30 18:45 52.17068 -0.70827 12856 ft 395 kts 309°
2026-04-30 18:45 52.18877 -0.74224 13516 ft 399 kts 309°
2026-04-30 18:46 52.20704 -0.77661 14162 ft 403 kts 309°
2026-04-30 18:46 52.22553 -0.81144 14780 ft 406 kts 309°
2026-04-30 18:46 52.24451 -0.84499 15424 ft 410 kts 316°
2026-04-30 18:46 52.26699 -0.87376 16088 ft 413 kts 327°
2026-04-30 18:47 52.29162 -0.89822 16754 ft 416 kts 329°
2026-04-30 18:47 52.31663 -0.92231 17426 ft 418 kts 329°
2026-04-30 18:47 52.34177 -0.94660 18043 ft 422 kts 329°
2026-04-30 18:47 52.36707 -0.97134 18634 ft 425 kts 328°
2026-04-30 18:48 52.39249 -0.99648 19169 ft 429 kts 328°
2026-04-30 18:48 52.41817 -1.02207 19654 ft 434 kts 328°
2026-04-30 18:48 52.44400 -1.04790 20121 ft 436 kts 328°
2026-04-30 18:48 52.47021 -1.07414 20137 ft 448 kts 328°
2026-04-30 18:49 52.49710 -1.10113 20147 ft 458 kts 328°
2026-04-30 18:49 52.52436 -1.12872 20126 ft 460 kts 328°
2026-04-30 18:49 52.55147 -1.15627 20099 ft 456 kts 328°
2026-04-30 18:49 52.57845 -1.18368 20091 ft 454 kts 328°
2026-04-30 18:50 52.60527 -1.21084 20084 ft 452 kts 328°
2026-04-30 18:50 52.63201 -1.23792 20079 ft 452 kts 328°
2026-04-30 18:50 52.65875 -1.26502 20081 ft 452 kts 328°
2026-04-30 18:50 52.68556 -1.29226 20079 ft 453 kts 328°
2026-04-30 18:51 52.71236 -1.31953 19972 ft 450 kts 328°
2026-04-30 18:51 52.73888 -1.34651 19717 ft 442 kts 328°
2026-04-30 18:51 52.76471 -1.37280 19405 ft 431 kts 327°
2026-04-30 18:51 52.78996 -1.39853 19102 ft 422 kts 327°
2026-04-30 18:52 52.81434 -1.42342 18812 ft 413 kts 327°
2026-04-30 18:52 52.83858 -1.44821 18520 ft 406 kts 327°
2026-04-30 18:52 52.86254 -1.47274 18199 ft 403 kts 327°
2026-04-30 18:52 52.88636 -1.49718 17898 ft 403 kts 327°
2026-04-30 18:53 52.91033 -1.52179 17617 ft 408 kts 327°
2026-04-30 18:53 52.93449 -1.54664 17307 ft 410 kts 327°
2026-04-30 18:53 52.95865 -1.57151 16998 ft 408 kts 327°
2026-04-30 18:53 52.98268 -1.59628 16700 ft 406 kts 327°
2026-04-30 18:54 53.00663 -1.62099 16404 ft 404 kts 327°
2026-04-30 18:54 53.03023 -1.64630 16104 ft 402 kts 321°
2026-04-30 18:54 53.04335 -1.66772 15883 ft 399 kts 305°
2026-04-30 18:54 53.05675 -1.70745 15640 ft 391 kts 287°
2026-04-30 18:55 53.06297 -1.75089 15381 ft 384 kts 276°
2026-04-30 18:55 53.07098 -1.83874 14811 ft 383 kts 274°
2026-04-30 18:55 53.07482 -1.88258 14534 ft 383 kts 275°
2026-04-30 18:56 53.08274 -1.97010 13988 ft 382 kts 275°
2026-04-30 18:56 53.08677 -2.01374 13682 ft 381 kts 275°
2026-04-30 18:56 53.09082 -2.05719 13398 ft 379 kts 275°
2026-04-30 18:57 53.09884 -2.14329 12832 ft 373 kts 275°
2026-04-30 18:57 53.10278 -2.18571 12563 ft 370 kts 275°
2026-04-30 18:57 53.10662 -2.22734 12301 ft 367 kts 275°
2026-04-30 18:58 53.11428 -2.31084 11565 ft 362 kts 275°
2026-04-30 18:58 53.11801 -2.35158 11138 ft 350 kts 275°
2026-04-30 18:58 53.12162 -2.39124 10695 ft 340 kts 275°
2026-04-30 18:59 53.12844 -2.46656 10188 ft 312 kts 275°
2026-04-30 19:00 53.13750 -2.56770 9704 ft 289 kts 275°
2026-04-30 19:00 53.14060 -2.60107 9245 ft 294 kts 275°
2026-04-30 19:00 53.14709 -2.66827 8323 ft 294 kts 275°
2026-04-30 19:01 53.15351 -2.73467 7434 ft 287 kts 275°
2026-04-30 19:01 53.15661 -2.76703 7199 ft 276 kts 275°
2026-04-30 19:02 53.16250 -2.82888 6859 ft 274 kts 275°
2026-04-30 19:02 53.16839 -2.89145 6327 ft 271 kts 275°
2026-04-30 19:03 53.17421 -2.95333 5775 ft 269 kts 275°
2026-04-30 19:03 53.17994 -3.01476 5237 ft 267 kts 274°
2026-04-30 19:04 53.18561 -3.07573 4673 ft 264 kts 274°
2026-04-30 19:04 53.20405 -3.12740 4185 ft 271 kts 329°
2026-04-30 19:05 53.23890 -3.14464 3991 ft 253 kts 349°
2026-04-30 19:05 53.27276 -3.15669 3554 ft 249 kts 350°
2026-04-30 19:06 53.30626 -3.16775 3117 ft 237 kts
2026-04-30 19:06 53.32114 -3.16030 2818 ft 215 kts 47°
2026-04-30 19:06 53.32556 -3.12222 2730 ft 161 kts 107°
2026-04-30 19:07 53.32394 -3.08353 2626 ft 172 kts 97°
2026-04-30 19:07 53.32419 -3.06393 2392 ft 163 kts 94°
2026-04-30 19:08 53.32560 -3.02872 1993 ft 146 kts 92°
2026-04-30 19:08 53.32701 -2.99673 1624 ft 134 kts 91°
2026-04-30 19:08 53.32770 -2.98101 1452 ft 138 kts 90°
2026-04-30 19:09 53.32917 -2.94820 1066 ft 140 kts 89°
2026-04-30 19:09 53.32990 -2.93199 875 ft 140 kts 91°
2026-04-30 19:09 53.33063 -2.91552 695 ft 142 kts 90°
2026-04-30 19:10 53.33219 -2.88189 308 ft 149 kts 87°
2026-04-30 19:10 53.33361 -2.85010 88 ft 108 kts 85°
2026-04-30 19:11 53.33405 -2.84059 88 ft 44 kts 86°
2026-04-30 19:11 53.33450 -2.83629 92 ft 11 kts 13°
2026-04-30 19:11 53.33511 -2.83630 92 ft 8 kts 356°
2026-04-30 19:12 53.33566 -2.83639 89 ft 8 kts 344°
2026-04-30 19:12 53.33586 -2.83716 88 ft 8 kts 265°
2026-04-30 19:12 53.33582 -2.83803 91 ft 7 kts 265°
2026-04-30 19:13 53.33573 -2.83992 91 ft 10 kts 265°
2026-04-30 19:13 53.33558 -2.84317 90 ft 18 kts 266°
2026-04-30 19:13 53.33547 -2.84554 88 ft 22 kts 265°
2026-04-30 19:14 53.33534 -2.84821 91 ft 23 kts 265°
2026-04-30 19:14 53.33527 -2.84995 88 ft 10 kts 266°
2026-04-30 19:14 53.33551 -2.85060 89 ft 7 kts 343°
2026-04-30 19:14 53.33600 -2.85069 88 ft 7 kts 356°
2026-04-30 19:15 53.33632 -2.85091 91 ft 4 kts 290°
2026-04-30 19:15 53.33631 -2.85179 90 ft 1 kts 266°
2026-04-30 19:15 53.33630 -2.85193 89 ft 0 kts 266°